UZB755 UZTT-UBBB

Flight info

Callsign UZB755
Flight time 2h 28m
Altitude 34000
Route N0450F340 DIBAD N193 OGOLI T898 DARVA B476 TIMGA A480 KRS B143 TUNEK A909 RODAR M11 AMOKU
Aircraft A21N/M-VGDW/C

Departure

Time 2026-04-22 16:12
Airport Tashkent International Airport (UZTT)

Arrival

Time 2026-04-22 18:40
Airport Heydar Aliyev International Airport (UBBB)
Time Latitude Longitude Altitude Speed Heading
2026-04-22 15:32 41.26181 69.26883 1332 ft 0 kts 356°
2026-04-22 16:02 41.26168 69.26884 1382 ft 0 kts 356°
2026-04-22 16:02 41.26143 69.26890 1386 ft 4 kts 327°
2026-04-22 16:02 41.26123 69.26913 1382 ft 0 kts 312°
2026-04-22 16:03 41.26107 69.26940 1385 ft 0 kts 304°
2026-04-22 16:03 41.26093 69.26968 1382 ft 0 kts 294°
2026-04-22 16:03 41.26089 69.27000 1382 ft 0 kts 254°
2026-04-22 16:03 41.26097 69.27032 1383 ft 0 kts 250°
2026-04-22 16:04 41.26107 69.27065 1383 ft 0 kts 246°
2026-04-22 16:04 41.26112 69.27079 1382 ft 0 kts 246°
2026-04-22 16:08 41.26109 69.27070 1385 ft 2 kts 246°
2026-04-22 16:08 41.26099 69.27039 1384 ft 5 kts 249°
2026-04-22 16:08 41.26083 69.26984 1383 ft 8 kts 248°
2026-04-22 16:08 41.26058 69.26908 1382 ft 10 kts 246°
2026-04-22 16:09 41.26026 69.26811 1387 ft 13 kts 246°
2026-04-22 16:09 41.25987 69.26692 1385 ft 15 kts 246°
2026-04-22 16:09 41.25951 69.26584 1387 ft 4 kts 246°
2026-04-22 16:09 41.25937 69.26544 1386 ft 6 kts 246°
2026-04-22 16:10 41.25913 69.26483 1384 ft 9 kts 226°
2026-04-22 16:10 41.25858 69.26425 1387 ft 11 kts 219°
2026-04-22 16:10 41.25814 69.26376 1387 ft 13 kts 219°
2026-04-22 16:10 41.25731 69.26235 1385 ft 17 kts 246°
2026-04-22 16:11 41.25686 69.26108 1387 ft 11 kts 244°
2026-04-22 16:11 41.25623 69.26099 1383 ft 14 kts 88°
2026-04-22 16:11 41.25647 69.26311 1384 ft 53 kts 82°
2026-04-22 16:11 41.25743 69.27162 1386 ft 132 kts 83°
2026-04-22 16:12 41.25909 69.28656 1421 ft 191 kts 80°
2026-04-22 16:12 41.26087 69.30400 2250 ft 192 kts 82°
2026-04-22 16:12 41.26267 69.32173 3239 ft 195 kts 85°
2026-04-22 16:12 41.26468 69.34008 3885 ft 207 kts 85°
2026-04-22 16:13 41.26683 69.35962 4500 ft 221 kts 85°
2026-04-22 16:13 41.26539 69.38080 4752 ft 245 kts 116°
2026-04-22 16:13 41.25433 69.39867 5086 ft 261 kts 150°
2026-04-22 16:13 41.23710 69.40545 5728 ft 263 kts 183°
2026-04-22 16:14 41.21974 69.39875 6498 ft 263 kts 214°
2026-04-22 16:14 41.20758 69.38086 7276 ft 265 kts 239°
2026-04-22 16:14 41.19868 69.35928 8157 ft 267 kts 239°
2026-04-22 16:14 41.18876 69.33830 9034 ft 269 kts 235°
2026-04-22 16:15 41.17790 69.31834 9913 ft 271 kts 233°
2026-04-22 16:15 41.16703 69.29734 10441 ft 286 kts 244°
2026-04-22 16:15 41.16181 69.27097 10725 ft 310 kts 265°
2026-04-22 16:15 41.16352 69.24134 11014 ft 333 kts 275°
2026-04-22 16:16 41.16698 69.21006 11292 ft 351 kts 276°
2026-04-22 16:16 41.17054 69.17753 11846 ft 359 kts 275°
2026-04-22 16:16 41.17399 69.14444 12531 ft 364 kts 275°
2026-04-22 16:16 41.17744 69.11099 13219 ft 367 kts 275°
2026-04-22 16:17 41.18075 69.07721 13874 ft 371 kts 274°
2026-04-22 16:17 41.18401 69.04311 14458 ft 374 kts 274°
2026-04-22 16:17 41.18729 69.00867 15044 ft 377 kts 274°
2026-04-22 16:17 41.19051 68.97401 15615 ft 380 kts 274°
2026-04-22 16:18 41.19371 68.93950 16175 ft 383 kts 274°
2026-04-22 16:18 41.19701 68.90425 16731 ft 386 kts 274°
2026-04-22 16:18 41.20028 68.86880 17281 ft 389 kts 274°
2026-04-22 16:18 41.20364 68.83304 17847 ft 391 kts 274°
2026-04-22 16:19 41.20696 68.79710 18395 ft 393 kts 274°
2026-04-22 16:19 41.21027 68.76094 18898 ft 395 kts 274°
2026-04-22 16:19 41.21362 68.72458 19390 ft 397 kts 273°
2026-04-22 16:19 41.21692 68.68807 19875 ft 400 kts 273°
2026-04-22 16:20 41.22026 68.65131 20367 ft 402 kts 273°
2026-04-22 16:20 41.22361 68.61431 20858 ft 405 kts 272°
2026-04-22 16:20 41.22700 68.57709 21355 ft 407 kts 272°
2026-04-22 16:20 41.22928 68.55180 21693 ft 409 kts 272°
2026-04-22 16:21 41.23373 68.50200 22396 ft 412 kts 272°
2026-04-22 16:21 41.23597 68.47682 22743 ft 413 kts 271°
2026-04-22 16:21 41.23934 68.43880 23245 ft 415 kts 271°
2026-04-22 16:21 41.24277 68.40063 23682 ft 418 kts 271°
2026-04-22 16:22 41.24954 68.32353 24479 ft 422 kts 271°
2026-04-22 16:22 41.25290 68.28468 24865 ft 424 kts 271°
2026-04-22 16:22 41.25625 68.24569 25247 ft 426 kts 271°
2026-04-22 16:23 41.26309 68.16702 25994 ft 431 kts 271°
2026-04-22 16:23 41.26657 68.12729 26348 ft 433 kts 270°
2026-04-22 16:23 41.27002 68.08738 26680 ft 435 kts 270°
2026-04-22 16:24 41.27343 68.04739 27076 ft 436 kts 270°
2026-04-22 16:24 41.28018 67.96759 28003 ft 433 kts 270°
2026-04-22 16:24 41.28403 67.92787 28449 ft 434 kts 274°
2026-04-22 16:25 41.28999 67.88852 28893 ft 435 kts 275°
2026-04-22 16:25 41.30226 67.81039 29788 ft 432 kts 275°
2026-04-22 16:25 41.30839 67.77133 30185 ft 431 kts 275°
2026-04-22 16:26 41.31446 67.73238 30565 ft 429 kts 274°
2026-04-22 16:26 41.32046 67.69356 30942 ft 427 kts 274°
2026-04-22 16:26 41.32635 67.65486 31320 ft 426 kts 274°
2026-04-22 16:26 41.33225 67.61635 31683 ft 424 kts 274°
2026-04-22 16:27 41.33810 67.57791 31988 ft 425 kts 278°
2026-04-22 16:27 41.34402 67.53940 32407 ft 423 kts 274°
2026-04-22 16:27 41.34992 67.50125 32824 ft 420 kts 274°
2026-04-22 16:27 41.35571 67.46324 33168 ft 417 kts 273°
2026-04-22 16:28 41.36150 67.42540 33533 ft 416 kts 273°
2026-04-22 16:28 41.36725 67.38767 33831 ft 415 kts 273°
2026-04-22 16:28 41.37851 67.31248 33897 ft 413 kts 272°
2026-04-22 16:29 41.38967 67.23791 33885 ft 413 kts 272°
2026-04-22 16:29 41.40067 67.16273 33886 ft 415 kts 273°
2026-04-22 16:30 41.41189 67.08722 33884 ft 415 kts 273°
2026-04-22 16:30 41.42317 67.01177 33885 ft 415 kts 273°
2026-04-22 16:31 41.43446 66.93622 33880 ft 415 kts 273°
2026-04-22 16:31 41.44548 66.86070 33914 ft 415 kts 272°
2026-04-22 16:32 41.45649 66.78536 33889 ft 414 kts 272°
2026-04-22 16:32 41.46753 66.71000 33888 ft 414 kts 272°
2026-04-22 16:33 41.47834 66.63457 33888 ft 414 kts 271°
2026-04-22 16:33 41.48925 66.55906 33905 ft 415 kts 272°
2026-04-22 16:34 41.50045 66.48405 33894 ft 415 kts 272°
2026-04-22 16:34 41.51165 66.40839 33890 ft 415 kts 272°
2026-04-22 16:35 41.52268 66.33282 33901 ft 415 kts 272°
2026-04-22 16:35 41.53362 66.25742 33893 ft 414 kts 272°
2026-04-22 16:36 41.54461 66.18182 33899 ft 416 kts 272°
2026-04-22 16:36 41.55559 66.10600 33895 ft 416 kts 272°
2026-04-22 16:37 41.56640 66.03062 33897 ft 416 kts 272°
2026-04-22 16:37 41.57720 65.95472 33887 ft 416 kts 272°
2026-04-22 16:38 41.58793 65.87870 33899 ft 416 kts 272°
2026-04-22 16:38 41.59867 65.80287 33894 ft 416 kts 272°
2026-04-22 16:39 41.60939 65.72699 33892 ft 415 kts 272°
2026-04-22 16:39 41.61990 65.65110 33893 ft 415 kts 272°
2026-04-22 16:40 41.63057 65.57560 33895 ft 416 kts 272°
2026-04-22 16:41 41.64644 65.46144 33889 ft 416 kts 272°
2026-04-22 16:41 41.65704 65.38533 33894 ft 416 kts 272°
2026-04-22 16:42 41.66741 65.30924 33890 ft 416 kts 271°
2026-04-22 16:42 41.67774 65.23335 33910 ft 414 kts 271°
2026-04-22 16:43 41.68794 65.15806 33897 ft 414 kts 271°
2026-04-22 16:43 41.69808 65.08219 33895 ft 414 kts 271°
2026-04-22 16:44 41.70824 65.00643 33894 ft 414 kts 271°
2026-04-22 16:44 41.71835 64.93029 33911 ft 418 kts 272°
2026-04-22 16:45 41.72851 64.85346 33901 ft 419 kts 272°
2026-04-22 16:45 41.73858 64.77706 33899 ft 419 kts 272°
2026-04-22 16:46 41.74858 64.70012 33907 ft 419 kts 272°
2026-04-22 16:46 41.75803 64.62317 33898 ft 416 kts 268°
2026-04-22 16:47 41.75777 64.54684 33904 ft 408 kts 261°
2026-04-22 16:47 41.75529 64.47074 33905 ft 409 kts 261°
2026-04-22 16:48 41.75289 64.39515 33902 ft 409 kts 261°
2026-04-22 16:48 41.75051 64.31893 33916 ft 410 kts 261°
2026-04-22 16:49 41.74809 64.24271 33904 ft 410 kts 261°
2026-04-22 16:49 41.74564 64.16641 33906 ft 410 kts 261°
2026-04-22 16:50 41.74322 64.09011 33901 ft 410 kts 261°
2026-04-22 16:50 41.74067 64.01437 33911 ft 410 kts 261°
2026-04-22 16:51 41.73813 63.93806 33906 ft 410 kts 261°
2026-04-22 16:51 41.73541 63.86165 33906 ft 411 kts 261°
2026-04-22 16:52 41.73279 63.78515 33904 ft 411 kts 261°
2026-04-22 16:52 41.73005 63.70864 33916 ft 411 kts 261°
2026-04-22 16:53 41.72721 63.63228 33900 ft 411 kts 261°
2026-04-22 16:53 41.72443 63.55591 33898 ft 411 kts 261°
2026-04-22 16:54 41.72151 63.47950 33900 ft 411 kts 261°
2026-04-22 16:54 41.71851 63.40353 33914 ft 411 kts 261°
2026-04-22 16:55 41.71552 63.32703 33900 ft 412 kts 261°
2026-04-22 16:55 41.71257 63.25044 33899 ft 412 kts 261°
2026-04-22 16:56 41.70953 63.17388 33894 ft 412 kts 261°
2026-04-22 16:56 41.70632 63.09738 33901 ft 412 kts 260°
2026-04-22 16:57 41.70305 63.02078 33899 ft 412 kts 260°
2026-04-22 16:57 41.69985 62.94405 33908 ft 413 kts 260°
2026-04-22 16:58 41.69712 62.88027 33897 ft 413 kts 260°
2026-04-22 16:58 41.69325 62.79050 33898 ft 413 kts 260°
2026-04-22 16:59 41.68993 62.71426 33900 ft 413 kts 260°
2026-04-22 16:59 41.68640 62.63742 33896 ft 413 kts 260°
2026-04-22 17:00 41.68292 62.56064 33899 ft 413 kts 260°
2026-04-22 17:00 41.67757 62.44557 33899 ft 413 kts 260°
2026-04-22 17:01 41.67398 62.36904 33908 ft 411 kts 260°
2026-04-22 17:01 41.67034 62.29262 33896 ft 411 kts 260°
2026-04-22 17:02 41.66646 62.21670 33891 ft 412 kts 260°
2026-04-22 17:02 41.66269 62.14030 33890 ft 412 kts 260°
2026-04-22 17:03 41.65888 62.06397 33898 ft 411 kts 260°
2026-04-22 17:03 41.65505 61.98785 33908 ft 410 kts 260°
2026-04-22 17:04 41.65120 61.91164 33889 ft 410 kts 260°
2026-04-22 17:04 41.64722 61.83559 33894 ft 410 kts 259°
2026-04-22 17:05 41.64330 61.75996 33892 ft 410 kts 260°
2026-04-22 17:05 41.63939 61.68390 33901 ft 410 kts 260°
2026-04-22 17:06 41.63528 61.60777 33898 ft 411 kts 260°
2026-04-22 17:06 41.63109 61.53155 33899 ft 411 kts 259°
2026-04-22 17:07 41.62678 61.45526 33899 ft 411 kts 260°
2026-04-22 17:07 41.62250 61.37898 33893 ft 411 kts 259°
2026-04-22 17:08 41.61810 61.30275 33897 ft 411 kts 259°
2026-04-22 17:08 41.61371 61.22658 33900 ft 411 kts 259°
2026-04-22 17:09 41.60922 61.15031 33903 ft 413 kts 260°
2026-04-22 17:09 41.60467 61.07386 33895 ft 413 kts 260°
2026-04-22 17:10 41.60077 61.01027 33898 ft 413 kts 259°
2026-04-22 17:10 41.59607 60.93368 33907 ft 414 kts 260°
2026-04-22 17:11 41.59136 60.85681 33903 ft 415 kts 260°
2026-04-22 17:11 41.58658 60.78008 33929 ft 415 kts 260°
2026-04-22 17:12 41.58179 60.70355 33933 ft 415 kts 260°
2026-04-22 17:12 41.57288 60.62914 33935 ft 408 kts 250°
2026-04-22 17:13 41.56443 60.59235 33476 ft 411 kts 251°
2026-04-22 17:13 41.55583 60.55600 34099 ft 412 kts 249°
2026-04-22 17:13 41.53863 60.48307 33995 ft 411 kts 249°
2026-04-22 17:14 41.52150 60.41034 33932 ft 411 kts 249°
2026-04-22 17:14 41.50429 60.33742 33917 ft 411 kts 249°
2026-04-22 17:15 41.48727 60.26456 33917 ft 411 kts 250°
2026-04-22 17:15 41.47014 60.19196 33907 ft 410 kts 249°
2026-04-22 17:16 41.45263 60.11944 33901 ft 411 kts 249°
2026-04-22 17:16 41.43532 60.04749 33902 ft 410 kts 249°
2026-04-22 17:17 41.41782 59.97506 33911 ft 411 kts 250°
2026-04-22 17:17 41.40038 59.90254 33909 ft 411 kts 250°
2026-04-22 17:18 41.38279 59.83005 33906 ft 411 kts 249°
2026-04-22 17:18 41.36508 59.75768 33909 ft 411 kts 249°
2026-04-22 17:19 41.32884 59.61378 33915 ft 411 kts 249°
2026-04-22 17:20 41.29080 59.47014 33912 ft 412 kts 249°
2026-04-22 17:21 41.26211 59.36247 33918 ft 411 kts 249°
2026-04-22 17:22 41.23345 59.25495 33922 ft 411 kts 249°
2026-04-22 17:23 41.20459 59.14768 33925 ft 411 kts 249°
2026-04-22 17:23 41.17562 59.04046 33928 ft 411 kts 249°
2026-04-22 17:24 41.15625 58.96904 33933 ft 411 kts 249°
2026-04-22 17:24 41.13691 58.89813 33932 ft 411 kts 249°
2026-04-22 17:25 41.11739 58.82670 33941 ft 411 kts 249°
2026-04-22 17:25 41.09789 58.75534 33945 ft 412 kts 249°
2026-04-22 17:26 41.07832 58.68390 33948 ft 412 kts 249°
2026-04-22 17:26 41.05869 58.61246 33955 ft 413 kts 249°
2026-04-22 17:27 41.03894 58.54084 33957 ft 414 kts 249°
2026-04-22 17:27 41.01907 58.46914 33955 ft 415 kts 249°
2026-04-22 17:28 40.99928 58.39778 33950 ft 415 kts 249°
2026-04-22 17:28 40.97930 58.32602 33967 ft 415 kts 249°
2026-04-22 17:29 40.95921 58.25426 33958 ft 415 kts 249°
2026-04-22 17:29 40.93919 58.18262 33957 ft 415 kts 249°
2026-04-22 17:30 40.91909 58.11105 33966 ft 415 kts 249°
2026-04-22 17:30 40.89898 58.03945 33966 ft 415 kts 249°
2026-04-22 17:31 40.87877 57.96786 33968 ft 415 kts 249°
2026-04-22 17:31 40.85850 57.89639 33970 ft 416 kts 249°
2026-04-22 17:32 40.83820 57.82480 33981 ft 416 kts 249°
2026-04-22 17:32 40.81784 57.75329 33966 ft 416 kts 249°
2026-04-22 17:33 40.79743 57.68182 33976 ft 416 kts 249°
2026-04-22 17:33 40.77747 57.61008 33968 ft 417 kts 250°
2026-04-22 17:34 40.75838 57.53773 33977 ft 417 kts 250°
2026-04-22 17:34 40.73944 57.46594 33985 ft 417 kts 250°
2026-04-22 17:35 40.72029 57.39376 33987 ft 417 kts 250°
2026-04-22 17:35 40.70110 57.32152 33979 ft 418 kts 250°
2026-04-22 17:36 40.68186 57.24928 33989 ft 418 kts 250°
2026-04-22 17:36 40.66257 57.17711 33982 ft 418 kts 250°
2026-04-22 17:37 40.64323 57.10497 33989 ft 418 kts 250°
2026-04-22 17:37 40.62379 57.03280 33990 ft 418 kts 250°
2026-04-22 17:38 40.60431 56.96071 33996 ft 418 kts 250°
2026-04-22 17:38 40.58476 56.88874 33993 ft 418 kts 250°
2026-04-22 17:39 40.56535 56.81724 33990 ft 418 kts 250°
2026-04-22 17:40 40.53587 56.70931 33990 ft 418 kts 250°
2026-04-22 17:40 40.51615 56.63726 33985 ft 418 kts 250°
2026-04-22 17:41 40.49642 56.56536 33996 ft 418 kts 250°
2026-04-22 17:41 40.47661 56.49348 33994 ft 418 kts 250°
2026-04-22 17:42 40.45676 56.42154 33995 ft 419 kts 250°
2026-04-22 17:42 40.44019 56.36164 33995 ft 420 kts 250°
2026-04-22 17:43 40.41683 56.27750 34006 ft 420 kts 250°
2026-04-22 17:43 40.39675 56.20561 34006 ft 420 kts 250°
2026-04-22 17:44 40.37679 56.13415 33996 ft 420 kts 250°
2026-04-22 17:44 40.35665 56.06221 34003 ft 420 kts 250°
2026-04-22 17:45 40.33647 55.99035 33997 ft 420 kts 250°
2026-04-22 17:45 40.31621 55.91849 34000 ft 420 kts 250°
2026-04-22 17:46 40.29592 55.84660 34000 ft 420 kts 250°
2026-04-22 17:46 40.27560 55.77471 33998 ft 420 kts 250°
2026-04-22 17:47 40.26421 55.70033 34003 ft 421 kts 263°
2026-04-22 17:47 40.25906 55.62395 34001 ft 421 kts 264°
2026-04-22 17:48 40.25460 55.55994 33996 ft 421 kts 264°
2026-04-22 17:48 40.24818 55.47119 34008 ft 421 kts 263°
2026-04-22 17:49 40.24252 55.39473 34001 ft 422 kts 263°
2026-04-22 17:49 40.23680 55.31823 34001 ft 422 kts 263°
2026-04-22 17:50 40.23098 55.24166 33996 ft 422 kts 263°
2026-04-22 17:50 40.22518 55.16518 33997 ft 422 kts 263°
2026-04-22 17:51 40.21928 55.08870 33991 ft 422 kts 263°
2026-04-22 17:51 40.21332 55.01230 33992 ft 422 kts 263°
2026-04-22 17:52 40.20729 54.93588 33996 ft 422 kts 263°
2026-04-22 17:52 40.20134 54.86009 34004 ft 421 kts 263°
2026-04-22 17:53 40.19536 54.78386 33990 ft 421 kts 263°
2026-04-22 17:53 40.18929 54.70758 33995 ft 422 kts 263°
2026-04-22 17:54 40.18311 54.63126 33997 ft 422 kts 263°
2026-04-22 17:54 40.17689 54.55484 33999 ft 422 kts 263°
2026-04-22 17:55 40.17167 54.49132 33994 ft 423 kts 263°
2026-04-22 17:55 40.16537 54.41493 34001 ft 423 kts 263°
2026-04-22 17:56 40.15901 54.33848 33999 ft 423 kts 263°
2026-04-22 17:56 40.15261 54.26210 33996 ft 422 kts 263°
2026-04-22 17:57 40.14616 54.18581 33993 ft 422 kts 263°
2026-04-22 17:57 40.13963 54.10950 34003 ft 422 kts 263°
2026-04-22 17:58 40.13308 54.03323 33997 ft 422 kts 263°
2026-04-22 17:58 40.12644 53.95685 34000 ft 423 kts 263°
2026-04-22 17:59 40.11977 53.88049 34000 ft 423 kts 263°
2026-04-22 17:59 40.11308 53.80417 33997 ft 423 kts 263°
2026-04-22 18:00 40.10631 53.72833 34000 ft 423 kts 263°
2026-04-22 18:00 40.09950 53.65208 33988 ft 423 kts 263°
2026-04-22 18:01 40.09267 53.57583 33999 ft 423 kts 263°
2026-04-22 18:01 40.08575 53.49954 34001 ft 423 kts 263°
2026-04-22 18:02 40.07876 53.42317 33988 ft 423 kts 263°
2026-04-22 18:02 40.07169 53.34677 33987 ft 423 kts 263°
2026-04-22 18:03 40.06466 53.27095 33997 ft 424 kts 263°
2026-04-22 18:03 40.05756 53.19478 33995 ft 420 kts 263°
2026-04-22 18:04 40.05046 53.11951 33992 ft 421 kts 263°
2026-04-22 18:04 40.04320 53.04301 33988 ft 425 kts 263°
2026-04-22 18:05 40.03890 52.96611 33984 ft 425 kts 268°
2026-04-22 18:05 40.03694 52.88900 33994 ft 425 kts 268°
2026-04-22 18:06 40.03487 52.81216 33987 ft 421 kts 268°
2026-04-22 18:06 40.03279 52.73688 33986 ft 414 kts 268°
2026-04-22 18:07 40.03065 52.66127 34005 ft 421 kts 268°
2026-04-22 18:07 40.02844 52.58492 33990 ft 421 kts 268°
2026-04-22 18:08 40.02618 52.50905 33769 ft 412 kts 268°
2026-04-22 18:08 40.02507 52.47189 33493 ft 409 kts 268°
2026-04-22 18:08 40.02394 52.43492 33173 ft 406 kts 268°
2026-04-22 18:08 40.02281 52.39823 32737 ft 402 kts 268°
2026-04-22 18:09 40.02169 52.36193 32265 ft 398 kts 268°
2026-04-22 18:09 40.02056 52.32594 31771 ft 396 kts 268°
2026-04-22 18:09 40.01943 52.29015 31264 ft 393 kts 268°
2026-04-22 18:09 40.01829 52.25456 30785 ft 391 kts 268°
2026-04-22 18:10 40.01714 52.21920 30319 ft 388 kts 268°
2026-04-22 18:10 40.01600 52.18411 29809 ft 386 kts 268°
2026-04-22 18:10 40.01485 52.14919 29263 ft 384 kts 268°
2026-04-22 18:10 40.01368 52.11449 28756 ft 381 kts 268°
2026-04-22 18:11 40.01253 52.08009 28278 ft 378 kts 269°
2026-04-22 18:11 40.01137 52.04592 27810 ft 375 kts 269°
2026-04-22 18:11 40.01023 52.01254 27364 ft 372 kts 269°
2026-04-22 18:11 40.00908 51.97897 26879 ft 369 kts 269°
2026-04-22 18:12 40.00793 51.94562 26403 ft 367 kts 269°
2026-04-22 18:12 40.00678 51.91245 25951 ft 365 kts 269°
2026-04-22 18:12 40.00601 51.89058 25656 ft 363 kts 269°
2026-04-22 18:12 40.00444 51.84668 25061 ft 360 kts 269°
2026-04-22 18:13 40.00327 51.81405 24598 ft 359 kts 269°
2026-04-22 18:13 40.00209 51.78150 24137 ft 358 kts 268°
2026-04-22 18:13 40.00092 51.74910 23683 ft 358 kts 269°
2026-04-22 18:13 39.99975 51.71712 23184 ft 357 kts 268°
2026-04-22 18:14 39.99857 51.68490 22708 ft 354 kts 269°
2026-04-22 18:14 39.99738 51.65286 22234 ft 353 kts 269°
2026-04-22 18:14 39.99619 51.62098 21748 ft 351 kts 268°
2026-04-22 18:14 39.99498 51.58925 21280 ft 349 kts 268°
2026-04-22 18:15 39.99379 51.55770 20838 ft 347 kts 268°
2026-04-22 18:15 39.99267 51.52639 20401 ft 344 kts 270°
2026-04-22 18:15 39.99446 51.49548 19967 ft 341 kts 282°
2026-04-22 18:15 40.00187 51.46629 19556 ft 338 kts 293°
2026-04-22 18:16 40.01150 51.43828 19162 ft 337 kts 295°
2026-04-22 18:16 40.02123 51.41056 18768 ft 336 kts 294°
2026-04-22 18:16 40.03085 51.38278 18379 ft 336 kts 294°
2026-04-22 18:16 40.04019 51.35548 17956 ft 336 kts 294°
2026-04-22 18:17 40.04983 51.32702 17526 ft 336 kts 294°
2026-04-22 18:17 40.05920 51.29909 17125 ft 335 kts 294°
2026-04-22 18:17 40.06844 51.27160 16735 ft 335 kts 294°
2026-04-22 18:17 40.07780 51.24381 16346 ft 334 kts 294°
2026-04-22 18:18 40.08719 51.21609 15952 ft 333 kts 293°
2026-04-22 18:18 40.09647 51.18838 15571 ft 332 kts 293°
2026-04-22 18:18 40.10557 51.16103 15210 ft 325 kts 293°
2026-04-22 18:18 40.11457 51.13413 14819 ft 320 kts 293°
2026-04-22 18:19 40.12349 51.10756 14412 ft 317 kts 293°
2026-04-22 18:19 40.13231 51.08135 14018 ft 313 kts 293°
2026-04-22 18:19 40.14103 51.05545 13641 ft 308 kts 293°
2026-04-22 18:19 40.14957 51.03001 13274 ft 303 kts 293°
2026-04-22 18:20 40.15792 51.00501 12935 ft 298 kts 292°
2026-04-22 18:20 40.16607 50.98052 12619 ft 297 kts 293°
2026-04-22 18:20 40.17431 50.95588 12288 ft 296 kts 292°
2026-04-22 18:20 40.18251 50.93125 11952 ft 295 kts 292°
2026-04-22 18:21 40.19067 50.90659 11614 ft 295 kts 292°
2026-04-22 18:21 40.19880 50.88202 11305 ft 294 kts 293°
2026-04-22 18:21 40.20856 50.85862 10990 ft 293 kts 305°
2026-04-22 18:21 40.22327 50.84030 10713 ft 293 kts 324°
2026-04-22 18:22 40.24076 50.82681 10461 ft 289 kts 329°
2026-04-22 18:22 40.25817 50.81431 10271 ft 282 kts 329°
2026-04-22 18:22 40.27538 50.80183 10126 ft 281 kts 328°
2026-04-22 18:22 40.29220 50.78949 10003 ft 281 kts 328°
2026-04-22 18:23 40.30922 50.77693 9880 ft 281 kts 328°
2026-04-22 18:23 40.32621 50.76435 9757 ft 280 kts 328°
2026-04-22 18:23 40.34319 50.75175 9620 ft 280 kts 328°
2026-04-22 18:24 40.37400 50.72185 9355 ft 275 kts 308°
2026-04-22 18:24 40.38566 50.70201 9224 ft 274 kts 305°
2026-04-22 18:24 40.40848 50.66219 8954 ft 272 kts 306°
2026-04-22 18:25 40.41996 50.64253 8825 ft 271 kts 306°
2026-04-22 18:25 40.43146 50.62290 8704 ft 270 kts 306°
2026-04-22 18:25 40.44290 50.60341 8566 ft 269 kts 306°
2026-04-22 18:26 40.46572 50.56444 8320 ft 268 kts 306°
2026-04-22 18:26 40.47704 50.54506 8194 ft 267 kts 306°
2026-04-22 18:26 40.48846 50.52558 8071 ft 269 kts 306°
2026-04-22 18:26 40.49976 50.50632 7936 ft 269 kts 306°
2026-04-22 18:27 40.51114 50.48690 7813 ft 268 kts 306°
2026-04-22 18:27 40.52253 50.46747 7692 ft 268 kts 306°
2026-04-22 18:27 40.53386 50.44809 7561 ft 267 kts 306°
2026-04-22 18:27 40.54515 50.42883 7430 ft 265 kts 306°
2026-04-22 18:28 40.55637 50.40965 7305 ft 264 kts 306°
2026-04-22 18:28 40.56755 50.39048 7188 ft 264 kts 305°
2026-04-22 18:28 40.57872 50.37136 7065 ft 264 kts 306°
2026-04-22 18:28 40.58999 50.35206 6944 ft 266 kts 306°
2026-04-22 18:29 40.60128 50.33268 6820 ft 267 kts 306°
2026-04-22 18:29 40.61256 50.31326 6700 ft 266 kts 306°
2026-04-22 18:29 40.62382 50.29393 6578 ft 266 kts 306°
2026-04-22 18:29 40.63494 50.27482 6459 ft 266 kts 306°
2026-04-22 18:30 40.64618 50.25550 6339 ft 266 kts 306°
2026-04-22 18:30 40.66861 50.21689 6087 ft 264 kts 305°
2026-04-22 18:30 40.67977 50.19772 5956 ft 262 kts 305°
2026-04-22 18:31 40.69236 50.18054 5824 ft 265 kts 323°
2026-04-22 18:31 40.70968 50.17129 5689 ft 274 kts 350°
2026-04-22 18:31 40.72883 50.17042 5577 ft 277 kts 359°
2026-04-22 18:31 40.74799 50.17053 5408 ft 272 kts 351°
2026-04-22 18:32 40.76575 50.16373 5147 ft 261 kts 327°
2026-04-22 18:32 40.77972 50.14933 4891 ft 249 kts 306°
2026-04-22 18:32 40.78851 50.13059 4674 ft 236 kts 288°
2026-04-22 18:32 40.79200 50.11001 4389 ft 227 kts 270°
2026-04-22 18:33 40.79047 50.08942 4007 ft 226 kts 253°
2026-04-22 18:33 40.78428 50.07054 3725 ft 227 kts 236°
2026-04-22 18:33 40.77382 50.05472 3438 ft 231 kts 220°
2026-04-22 18:33 40.76016 50.04394 3163 ft 229 kts 204°
2026-04-22 18:34 40.74523 50.03682 2879 ft 228 kts 201°
2026-04-22 18:34 40.73028 50.02998 2599 ft 226 kts 201°
2026-04-22 18:34 40.71556 50.02305 2336 ft 224 kts 202°
2026-04-22 18:34 40.70112 50.01612 2166 ft 216 kts 203°
2026-04-22 18:35 40.68733 50.00954 2052 ft 206 kts 202°
2026-04-22 18:35 40.67415 50.00338 1973 ft 197 kts 202°
2026-04-22 18:35 40.66151 49.99720 1969 ft 196 kts 204°
2026-04-22 18:35 40.64918 49.99119 1974 ft 180 kts 199°
2026-04-22 18:36 40.63741 49.98866 2010 ft 168 kts 188°
2026-04-22 18:36 40.62565 49.98932 2014 ft 171 kts 180°
2026-04-22 18:36 40.61384 49.99176 2008 ft 173 kts 176°
2026-04-22 18:36 40.60251 49.99522 1986 ft 156 kts 174°
2026-04-22 18:37 40.59295 49.99823 1995 ft 130 kts 175°
2026-04-22 18:37 40.58425 50.00094 1892 ft 127 kts 175°
2026-04-22 18:37 40.57844 50.00276 1798 ft 127 kts 175°
2026-04-22 18:37 40.56714 50.00633 1580 ft 125 kts 175°
2026-04-22 18:38 40.55870 50.00899 1413 ft 125 kts 174°
2026-04-22 18:38 40.55026 50.01166 1250 ft 123 kts 173°
2026-04-22 18:38 40.54194 50.01428 1073 ft 123 kts 172°
2026-04-22 18:39 40.52524 50.01955 708 ft 123 kts 167°
2026-04-22 18:39 40.51695 50.02229 527 ft 124 kts 169°
2026-04-22 18:39 40.50851 50.02481 364 ft 125 kts 167°
2026-04-22 18:39 40.49997 50.02754 220 ft 126 kts 168°
2026-04-22 18:40 40.49153 50.03019 89 ft 124 kts 166°
2026-04-22 18:40 40.48357 50.03271 20 ft 111 kts 165°
2026-04-22 18:40 40.47736 50.03464 13 ft 62 kts 167°
2026-04-22 18:40 40.47463 50.03551 16 ft 33 kts 165°
2026-04-22 18:41 40.47232 50.03622 16 ft 35 kts 167°
2026-04-22 18:41 40.46994 50.03696 16 ft 36 kts 164°
2026-04-22 18:41 40.46878 50.03735 13 ft 18 kts 166°
2026-04-22 18:41 40.46819 50.03905 14 ft 20 kts 76°
2026-04-22 18:42 40.46847 50.04059 14 ft 18 kts 77°
2026-04-22 18:42 40.46878 50.04226 14 ft 20 kts 76°
2026-04-22 18:42 40.46895 50.04323 16 ft 2 kts 78°
2026-04-22 18:42 40.46898 50.04340 14 ft 4 kts 78°
2026-04-22 18:43 40.46904 50.04384 14 ft 6 kts 82°
2026-04-22 18:43 40.46909 50.04452 14 ft 9 kts 87°
2026-04-22 18:43 40.46911 50.04543 14 ft 11 kts 88°
2026-04-22 18:43 40.46914 50.04655 14 ft 13 kts 88°
2026-04-22 18:44 40.46917 50.04786 14 ft 16 kts 88°
2026-04-22 18:44 40.46921 50.04940 14 ft 18 kts 88°
2026-04-22 18:44 40.46925 50.05103 14 ft 15 kts 89°
2026-04-22 18:44 40.46927 50.05176 14 ft 7 kts 88°
2026-04-22 18:45 40.46896 50.05228 14 ft 9 kts 172°
2026-04-22 18:45 40.46823 50.05233 14 ft 11 kts 178°
2026-04-22 18:45 40.46764 50.05236 14 ft 9 kts 178°
2026-04-22 18:45 40.46751 50.05237 14 ft 1 kts 178°
2026-04-22 18:46 40.46733 50.05237 16 ft 4 kts 178°
2026-04-22 18:46 40.46729 50.05238 15 ft 0 kts 178°